Date String (YYYY-MM-DD hh:mm:ss) UTC,Instrument flags,Ambient pressure (hPa),Sample flow (lpm),Bypass flow (lpm),Sample temperature (°C),Ambient temperature (°C),ASC tube jacket temperature (°C),LED temperature (°C),Box temperature (°C),Sample RH (%),Span deviation,Mass concentration (μg/m³),Mass concentration (μg/m³),Mass concentration (μg/m³)
DateTimeUTC,F1_M11,P_M11,Q1_M11,Q2_M11,T1_M11,T2_M11,T3_M11,T4_M11,T5_M11,U1_M11,ZSPAN_M11,X0_M11,X2_M11,X1_M11
2022-04-15 14:00:00,,0817.4,5.00,0.00,22.9,22.1,00.0,31.8,24.7,10.8,0000.0,0014.64,0006.05,0004.13
2022-04-15 14:01:00,,0817.5,4.99,0.00,22.8,22.1,00.0,31.8,24.7,10.8,0000.0,0014.34,0006.04,0004.12
2022-04-15 14:02:00,,0817.5,5.01,0.00,22.8,22.1,00.0,31.8,24.6,10.8,0000.0,0014.56,0005.99,0004.10
2022-04-15 14:03:00,,0817.6,5.01,0.00,22.8,22.1,00.0,31.8,24.6,10.8,0000.0,0014.54,0005.91,0004.10
2022-04-15 14:04:00,,0817.7,5.00,0.00,22.8,22.3,00.0,31.8,24.7,10.8,0000.0,0015.69,0005.90,0004.08
2022-04-15 14:05:00,,0817.8,4.99,0.00,22.9,23.3,00.0,31.9,24.9,10.8,0000.0,0016.53,0005.89,0004.07
2022-04-15 14:06:00,,0817.8,5.00,0.00,23.1,24.0,00.0,31.9,25.1,10.7,0000.0,0016.55,0005.81,0004.05
2022-04-15 14:07:00,,0817.8,5.00,0.00,23.2,23.9,00.0,31.9,25.2,10.7,0000.0,0016.54,0005.77,0004.03
2022-04-15 14:08:00,,0817.8,4.99,0.00,23.2,23.6,00.0,31.9,25.1,10.6,0000.0,0016.94,0005.79,0004.02
2022-04-15 14:09:00,,0817.8,5.01,0.00,23.2,23.4,00.0,32.0,25.1,10.6,0000.0,0016.83,0005.76,0003.99
2022-04-15 14:10:00,,0817.8,4.99,0.00,23.2,23.2,00.0,32.0,25.0,10.6,0000.0,0017.29,0005.78,0003.97
2022-04-15 14:11:00,,0817.7,5.00,0.00,23.2,23.0,00.0,32.0,25.0,10.6,0000.0,0017.95,0005.73,0003.96
2022-04-15 14:12:00,,0817.7,5.00,0.00,23.2,22.9,00.0,32.0,25.0,10.6,0000.0,0018.77,0005.79,0003.97
2022-04-15 14:13:00,,0817.7,5.00,0.00,23.2,22.7,00.0,32.0,25.0,10.6,0000.0,0019.82,0005.83,0003.97
2022-04-15 14:14:00,,0817.7,5.00,0.00,23.2,22.6,00.0,32.0,25.0,10.6,0000.0,0019.90,0005.84,0003.95
2022-04-15 14:15:00,,0817.7,5.00,0.00,23.2,22.6,00.0,32.0,25.0,10.6,0000.0,0018.68,0005.79,0003.93
2022-04-15 14:16:00,,0817.8,5.01,0.00,23.1,22.5,00.0,32.0,25.0,10.7,0000.0,0018.92,0005.72,0003.91
2022-04-15 14:17:00,,0817.9,5.00,0.00,23.1,22.5,00.0,32.0,24.9,10.5,0000.0,0018.70,0005.75,0003.90
2022-04-15 14:18:00,,0817.9,5.00,0.00,23.1,22.4,00.0,32.0,24.9,10.4,0000.0,0018.88,0005.77,0003.89
2022-04-15 14:19:00,,0817.9,5.00,0.00,23.1,22.4,00.0,32.0,24.9,10.4,0000.0,0019.06,0005.74,0003.88
2022-04-15 14:20:00,,0817.9,5.00,0.00,23.1,22.4,00.0,32.0,24.9,10.5,0000.2,0019.16,0005.64,0003.88
2022-04-15 14:21:00,,0818.0,5.00,0.00,23.1,22.3,00.0,32.0,24.9,10.5,0000.5,0019.87,0005.65,0003.88
2022-04-15 14:22:00,,0817.9,4.99,0.00,23.1,22.3,00.0,32.0,24.9,10.4,0000.2,0019.67,0005.63,0003.87
2022-04-15 14:23:00,,0817.9,5.00,0.00,23.1,22.4,00.0,32.0,24.9,10.4,0000.1,0019.09,0005.61,0003.83
2022-04-15 14:24:00,,0817.9,5.00,0.00,23.1,22.4,00.0,32.0,24.9,10.4,0000.0,0017.99,0005.53,0003.79
2022-04-15 14:25:00,,0817.9,5.01,0.00,23.1,22.4,00.0,32.0,24.9,10.4,0000.0,0016.87,0005.50,0003.76
2022-04-15 14:26:00,,0817.8,5.02,0.00,23.1,22.3,00.0,32.0,24.9,10.3,0000.0,0017.19,0005.51,0003.75
2022-04-15 14:27:00,,0817.9,5.01,0.00,23.1,22.3,00.0,32.0,24.8,10.2,0000.0,0017.71,0005.59,0003.75
2022-04-15 14:28:00,,0817.9,5.00,0.00,23.1,22.3,00.0,32.0,24.9,10.3,0000.0,0017.15,0005.67,0003.75
2022-04-15 14:29:00,,0817.9,5.00,0.00,23.1,22.3,00.0,32.0,24.8,10.0,0000.0,0017.24,0005.69,0003.74
2022-04-15 14:30:00,,0817.9,5.00,0.00,23.0,22.2,00.0,32.0,24.8,10.0,0000.0,0016.94,0005.66,0003.74
2022-04-15 14:31:00,,0818.0,4.99,0.00,23.0,22.2,00.0,32.0,24.8,09.9,0000.0,0017.43,0005.75,0003.73
2022-04-15 14:32:00,,0818.1,5.01,0.00,23.0,22.2,00.0,32.0,24.8,09.8,0000.0,0016.86,0005.71,0003.70
2022-04-15 14:33:00,,0818.1,5.00,0.00,23.0,22.2,00.0,32.0,24.8,09.8,0000.0,0017.14,0005.70,0003.69
2022-04-15 14:34:00,,0818.0,5.00,0.00,23.0,22.1,00.0,32.0,24.8,09.8,0000.0,0017.36,0005.72,0003.69
2022-04-15 14:35:00,,0818.0,5.00,0.00,23.0,22.1,00.0,32.0,24.8,09.8,0000.0,0017.35,0005.81,0003.69
2022-04-15 14:36:00,,0818.0,5.00,0.00,23.0,22.2,00.0,32.0,24.8,09.7,0000.0,0017.43,0005.82,0003.69
2022-04-15 14:37:00,,0818.1,5.00,0.00,23.0,22.8,00.0,32.0,24.9,09.7,0000.0,0017.82,0005.83,0003.68
2022-04-15 14:38:00,,0818.1,5.00,0.00,23.2,23.9,00.0,32.1,25.1,09.7,0000.0,0017.53,0005.76,0003.66
2022-04-15 14:39:00,,0818.1,5.00,0.00,23.3,24.1,00.0,32.1,25.3,09.7,0000.0,0018.65,0005.71,0003.65
2022-04-15 14:40:00,,0818.1,4.99,0.00,23.4,23.9,00.0,32.1,25.3,09.6,0000.0,0020.88,0005.72,0003.65
2022-04-15 14:41:00,,0818.2,5.01,0.00,23.4,23.6,00.0,32.1,25.3,09.6,0000.0,0021.55,0005.76,0003.65
2022-04-15 14:42:00,,0818.1,5.00,0.00,23.4,23.4,00.0,32.1,25.2,09.5,0000.0,0021.65,0005.79,0003.65
2022-04-15 14:43:00,,0818.2,5.00,0.00,23.4,23.2,00.0,32.2,25.2,09.5,0000.0,0021.68,0005.76,0003.66
2022-04-15 14:44:00,,0818.3,5.00,0.00,23.3,23.1,00.0,32.2,25.1,09.6,0000.0,0021.38,0005.73,0003.66
2022-04-15 14:45:00,,0818.3,5.00,0.00,23.3,22.9,00.0,32.2,25.1,09.6,0000.0,0022.28,0005.70,0003.65
2022-04-15 14:46:00,,0818.4,5.01,0.00,23.3,22.9,00.0,32.2,25.1,09.6,0000.0,0022.47,0005.64,0003.67
2022-04-15 14:47:00,,0818.4,5.01,0.00,23.3,22.8,00.0,32.2,25.1,09.7,0000.0,0023.01,0005.67,0003.68
2022-04-15 14:48:00,,0818.3,5.00,0.00,23.3,22.7,00.0,32.2,25.1,09.5,0000.0,0022.88,0005.69,0003.68
2022-04-15 14:49:00,,0818.2,4.99,0.00,23.3,22.6,00.0,32.2,25.1,09.4,0000.0,0023.05,0005.71,0003.70
2022-04-15 14:50:00,,0818.2,5.00,0.00,23.3,22.6,00.0,32.2,25.1,09.4,0000.0,0021.84,0005.71,0003.70
2022-04-15 14:51:00,,0818.3,5.02,0.00,23.3,22.5,00.0,32.2,25.0,09.5,0000.0,0020.36,0005.67,0003.69
2022-04-15 14:52:00,,0818.4,4.99,0.00,23.3,22.5,00.0,32.2,25.0,09.4,0000.0,0020.49,0005.62,0003.69
2022-04-15 14:53:00,,0818.4,5.00,0.00,23.2,22.5,00.0,32.2,25.0,09.4,0000.0,0020.73,0005.56,0003.70
2022-04-15 14:54:00,,0818.4,5.00,0.00,23.2,22.5,00.0,32.2,25.0,09.4,0000.0,0022.33,0005.59,0003.71
2022-04-15 14:55:00,,0818.5,5.00,0.00,23.2,22.5,00.0,32.2,25.0,09.5,0000.0,0023.45,0005.67,0003.72
2022-04-15 14:56:00,,0818.5,5.00,0.00,23.2,22.5,00.0,32.2,25.0,09.6,0000.0,0023.15,0005.74,0003.73
2022-04-15 14:57:00,,0818.4,5.00,0.00,23.2,22.5,00.0,32.2,25.0,09.5,0000.0,0023.21,0005.73,0003.72
2022-04-15 14:58:00,,0818.6,4.99,0.00,23.2,22.4,00.0,32.2,25.0,09.4,0000.0,0022.53,0005.72,0003.72
2022-04-15 14:59:00,,0818.8,5.00,0.00,23.2,22.4,00.0,32.2,25.0,09.3,0000.0,0023.00,0005.71,0003.72
